Dewpoint
22 34 31 35 43 44 45 44 45 44 45 45 44 43 43 46 47 48 48 46 42 38 38 35 31 30 29 29 29 30 30 30 31 32 30 41 46 46 45 45 45 40 39
26 37 38 40 43 44 45 45 44 44 45 46 46 45 45 45 46 48 47 47 44 41 39 38 35 33 32 31 30 32 31 31 32 31 32 27 29 38 40 42 37 35 40
29 36 38 40 44 44 45 44 44 45 45 46 46 46 46 46 46 45 46 46 44 44 42 40 37 36 35 33 33 32 31 31 32 32 33 27 23 26 31 38 39 40 37
34 37 38 41 44 45 45 45 45 45 46 46 46 46 45 44 44 44 45 45 44 44 43 43 40 38 37 36 35 30 34 34 32 33 32 32 31 29 25 28 32 35 33
37 38 39 42 43 45 46 45 42 42 44 47 47 47 46 46 46 45 45 45 45 44 43 43 42 41 39 38 37 36 34 33 33 33 33 33 33 33 32 29 29 31 32
40 41 42 42 40 39 39 39 38 38 39 42 45 46 47 46 45 45 45 45 45 45 44 43 43 42 41 40 39 39 37 35 33 33 34 34 32 31 34 31 30 27 28
39 40 39 36 34 36 37 35 36 37 39 40 42 43 45 45 45 45 45 45 45 45 45 44 44 43 42 42 41 39 38 36 35 34 33 33 33 33 32 31 29 28 28
38 37 34 33 33 34 33 33 34 35 37 42 43 44 44 45 45 45 45 45 44 44 44 44 43 43 42 41 41 40 39 38 37 36 34 33 32 33 33 32 31 29 28
34 32 32 31 31 32 32 32 32 32 34 37 39 40 41 42 43 43 43 42 42 40 40 42 42 42 42 42 41 40 39 38 37 36 36 34 33 32 32 32 32 30 27
32 31 31 31 31 32 33 32 31 32 33 34 34 35 35 36 37 37 36 36 35 36 37 37 38 38 39 39 39 40 39 38 38 36 35 35 34 32 32 33 32 31 30
32 31 30 31 32 32 32 32 31 30 30 30 28 26 25 26 24 23 24 25 26 26 26 27 28 28 29 31 33 35 36 36 37 37 37 35 35 34 33 34 32 32 32
32 31 30 30 31 30 30 29 27 24 24 22 20 21 22 23 22 22 23 23 23 24 25 25 24 24 24 25 25 27 29 30 31 33 36 36 34 34 34 33 32 32 31
31 29 29 29 29 30 28 25 24 22 21 21 20 20 21 21 21 23 23 24 24 25 24 25 25 25 26 26 25 25 26 26 27 28 29 30 32 33 34 34 33 33 30
29 28 27 26 27 27 23 20 18 20 21 21 20 20 21 22 22 23 24 24 25 25 25 26 26 27 26 27 27 27 28 28 29 31 31 30 30 30 31 32 34 33 33
27 27 27 25 26 24 22 17 17 20 21 19 20 21 22 22 23 23 24 24 26 26 26 26 27 27 27 26 29 31 31 31 30 31 30 32 33 35 35 32 33 34 33
27 27 26 26 24 20 16 17 18 19 20 18 18 21 20 22 23 23 23 24 25 25 26 26 26 27 26 32 34 34 32 32 31 31 31 32 36 36 37 36 37 37 35
27 27 26 26 21 18 15 16 19 20 19 18 18 19 20 21 22 22 22 23 23 24 25 26 26 26 27 32 34 35 32 32 32 33 33 32 32 36 33 35 36 35 36
27 27 26 24 20 16 18 20 22 18 18 17 17 19 20 20 21 22 23 22 22 23 24 25 26 27 27 32 33 34 32 32 32 32 31 31 31 33 32 32 32 33 33
27 27 26 21 20 19 18 19 19 20 19 17 17 19 21 21 21 22 22 22 23 23 24 25 26 26 27 32 33 32 31 30 30 30 30 31 31 34 35 33 33 33 33
27 27 23 21 19 15 17 17 14 16 16 16 19 20 21 22 22 22 21 22 23 23 25 25 26 28 27 31 32 32 29 29 29 31 31 33 33 35 36 34 34 33 34
27 25 24 21 16 15 17 16 14 14 15 19 20 21 22 21 21 21 21 21 22 23 24 24 24 24 26 27 32 33 30 30 32 32 32 32 34 35 35 35 34 36 35
26 24 22 17 16 18 17 15 14 15 16 18 20 20 19 20 20 20 20 21 21 22 22 22 24 25 26 30 31 33 34 33 30 31 32 33 36 37 37 36 35 36 37
25 20 15 13 14 14 15 14 13 15 15 17 17 18 20 20 20 19 20 21 22 22 22 24 25 26 26 28 31 32 34 34 32 33 34 36 37 37 36 36 37 35 35
16 13 14 13 13 14 16 15 16 16 17 17 18 18 19 20 20 20 21 22 22 21 22 25 26 27 29 29 28 29 32 34 33 35 36 37 36 36 35 35 34 34 35
14 15 15 16 15 17 19 17 17 17 18 18 18 19 20 20 20 20 21 22 22 24 26 29 29 29 29 30 33 33 32 33 34 35 35 34 33 30 32 33 32 34 34
16 17 18 17 21 20 18 18 18 18 19 18 19 21 22 22 21 21 21 27 28 29 30 31 30 29 33 34 34 34 34 34 35 34 34 31 30 29 33 33 33 32 33
Lifted_Index
9 10 11 12 11 11 11 11 12 12 12 13 13 13 12 12 12 13 13 14 15 15 15 15 15 16 16 16 16 15 15 15 15 15 14 14 13 13 13 14 15 16 17
9 10 10 11 11 11 11 11 12 12 12 13 13 13 13 12 13 13 13 14 15 15 15 15 15 15 15 15 15 15 15 15 15 15 14 14 13 13 14 14 15 16 16
9 9 10 11 11 11 11 12 12 12 12 13 13 12 12 12 13 13 13 13 14 14 14 14 15 15 15 15 15 15 15 15 15 15 14 14 13 13 14 14 15 16 16
9 10 10 11 11 11 12 12 12 12 12 12 12 12 12 12 12 12 13 13 13 13 13 14 14 14 14 14 14 14 15 15 15 15 14 14 14 13 13 13 14 15 16
10 10 11 11 11 12 12 12 12 13 13 12 12 12 12 12 12 12 12 12 11 12 12 13 13 14 14 14 14 14 14 14 15 15 14 14 14 13 13 12 13 14 14
10 11 11 11 12 12 12 13 13 13 13 13 12 12 12 12 12 12 11 11 11 11 11 12 12 13 13 13 14 14 14 14 14 14 14 14 14 13 13 12 12 12 12
11 11 12 12 12 12 13 13 13 13 13 13 13 13 13 12 12 11 11 11 11 11 11 12 12 13 13 13 14 14 14 14 14 14 14 14 13 13 13 13 12 12 12
11 12 12 12 12 13 13 13 13 13 13 13 13 13 13 13 12 11 11 11 11 12 12 12 13 13 13 14 14 14 13 13 13 13 13 13 13 13 13 13 12 12 12
11 12 12 12 12 12 12 12 12 13 13 13 13 13 13 13 12 12 12 13 13 13 14 14 14 14 14 14 14 14 14 13 13 13 13 13 12 12 12 12 12 12 12
11 11 12 12 12 12 12 12 12 13 14 14 13 13 13 14 14 14 14 14 15 15 16 16 16 16 16 16 15 15 15 14 14 14 13 13 12 12 12 12 12 12 12
11 11 11 11 11 12 12 12 13 14 14 14 14 14 14 15 15 15 15 16 16 17 17 17 17 17 17 17 17 16 16 16 15 15 14 14 13 12 12 12 12 12 11
11 11 11 11 11 11 12 13 13 14 14 15 15 15 15 15 15 15 16 16 17 17 18 18 18 18 18 18 18 17 17 17 16 16 15 15 14 14 13 12 12 12 11
11 11 11 11 11 11 12 13 14 15 15 16 15 15 15 15 15 16 17 17 18 18 18 18 18 18 18 18 18 17 17 17 17 16 16 16 16 15 14 14 13 13 12
10 11 11 11 11 11 12 13 14 15 16 15 15 15 15 15 16 17 18 18 18 18 18 18 18 18 18 17 17 17 17 17 17 17 16 16 16 16 15 15 14 14 14
10 10 11 11 11 11 12 13 15 15 15 15 15 15 16 16 17 17 18 18 18 18 18 18 18 18 17 17 16 16 16 16 16 16 16 16 16 16 16 15 15 15 14
10 10 10 10 10 11 12 13 15 15 15 15 15 15 16 17 17 17 17 17 17 18 18 18 18 17 17 16 16 15 15 15 16 15 15 15 14 15 15 15 15 15 15
10 10 10 10 10 11 12 14 15 15 14 14 15 16 16 16 16 16 16 16 17 17 17 18 18 17 17 16 15 15 14 15 15 15 14 14 14 14 14 15 15 15 15
10 10 10 10 11 12 13 14 15 14 14 15 16 16 16 15 15 15 15 16 17 17 17 17 17 17 17 16 15 14 14 14 14 14 14 13 13 14 15 15 16 16 16
9 10 10 10 11 13 14 14 14 14 15 15 16 16 15 15 14 15 15 16 17 17 17 17 17 17 17 16 15 14 14 13 13 13 13 13 14 14 15 15 16 15 15
9 9 9 10 12 13 14 14 14 15 15 15 15 15 14 14 14 15 16 16 17 17 17 17 17 16 16 15 15 14 14 14 13 14 14 14 15 15 15 14 14 14 13
8 9 9 10 12 14 14 14 14 15 15 15 14 14 14 14 15 16 16 16 16 16 16 16 16 16 15 15 14 14 14 14 14 14 15 15 14 14 13 12 11 11 10
9 9 10 11 13 14 14 14 14 14 13 13 13 13 14 15 16 16 16 16 16 15 15 15 15 15 14 14 14 14 14 14 15 15 14 13 12 11 10 9 8 8 8
9 10 11 12 13 14 14 13 12 12 13 13 13 13 15 15 15 15 15 15 15 15 15 15 15 15 14 14 14 14 14 14 14 13 11 10 8 8 7 7 7 7 7
10 11 12 13 13 13 13 12 12 12 12 12 13 14 15 15 15 14 14 14 14 14 14 14 14 14 14 14 14 14 13 12 11 10 8 7 6 6 6 6 6 6 6
11 12 12 12 12 12 11 11 12 12 12 13 13 14 14 14 14 14 14 14 14 14 14 14 14 14 14 13 13 13 11 10 8 7 6 5 5 5 5 5 5 5 5
11 12 12 12 11 10 11 11 12 13 13 13 13 14 14 14 13 13 13 13 13 13 13 13 13 13 13 13 12 11 10 8 7 5 5 5 6 5 5 5 5 5 5